STARLINK-1815, 46713

Orbit data source: Space-Track

STARLINK-1815, 46713 is a payload satellite owned by SpaceX/Seattle (US) in LEO that was launched on Sun, 18 Oct 2020 UTC via an FALCON 9 launch vehicle from the Air Force Eastern Test Range (AFETR). Payload-class satellites include a variety of spacecraft equipped with specific instruments for various scientific and technological missions. These include communications satellites like Starlink; space stations such as the ISS; scientific satellites like the Hubble; Earth observation satellites from companies like Planet Labs, Umbra, and HawkEye 360; GPS; miniature CubeSats for education and research; and military/defense satellites.

Not visible in the next 10 days
Identifier
46713, 2020-073AV
Orbit
LEO
Country
Flag of USUS
Related business
Manufacturer
SpaceX/Seattle
Mission
Partially operational Commercial Communications
Bus & Motor
STARLINK, Unknown motor
Mass
260 kg wet, ~248 kg dry
Launch date (UTC)
2020-10-18 (6 years ago)
Launch vehicle
FALCON 9
Launch site
Air Force Eastern Test Range (AFETR)
Object type
Payload
Rocket body
Debris
Shape & HBR
Box + 1 Pan, 10.1 m
Radar Cross Section
13.562 m², Large (>1 m²)

Expand to show TLE details & history
Last TLE update: 1 day ago

TLE from 1 day ago
0 STARLINK-1815
1 46713U 20073AV  26167.96985832  .07216199  12294-4  63696-3 0  9995
2 46713  53.0216  60.4470 0010861 263.6086  96.3723 16.38175792313420
Epoch: 2026-06-16T23:16Z
TLE epoch observation values (Epoch: 2026-06-16T23:16:35.758Z)
Latitude
-0.00002°
Longitude
166.06374°
Altitude
172.382 km
Speed
7.804 km/s
True Right ascension
04h 01m 47s
True Declination
0° 00' 00"
Sunlit
Object was in daylight at epoch
Visualization orbit readout
Latitude
Unknown
Longitude
Unknown
Altitude
Unknown
Speed
Unknown
Apparent Right ascension
Unknown
Apparent Declination
Unknown
Sunlit
N/A
Visualization observer readout
Local Sidereal Time
17:35:24
Azimuth
Unknown
Elevation
Unknown
Doppler factor
Unknown
Orbital elements
Apogee altitude
178.064 km
Perigee altitude
163.838 km
Semi-major axis
6,549.088 km
Eccentricity
0.00109
Inclination
53.0216°
RAAN
60.447°
Arg. of periapsis
263.6086°
True anomaly
96.49597°
Mean anomaly
96.3723°
Eccentric anomaly
96.43414°
Mean motion
4.09517 °/min
Orbital period
87.91 mins
BSTAR
0.00063696
Loading maneuver chart data...
Computing Atmospheric mass density...

Documentation

Showing up to 5 results
|